Weather History for Council Bluffs, IA

Change the Weather History Date:

Monday, January 21, 2013

  Actual Average Record
Temperature  
Mean Temperature 9 °F -  
Max Temperature 15 °F 31 °F 57 °F (2002)
Min Temperature 3 °F 15 °F -4 °F (2014)
Degree Days  
Heating Degree Days 56    
Moisture  
Dew Point -5 °F    
Average Humidity 53    
Maximum Humidity 73    
Minimum Humidity 38    
Precipitation  
Precipitation 0.00 in - - ()
Sea Level Pressure  
Sea Level Pressure 30.38 in    
Wind  
Wind Speed 11 mph (NNW)    
Max Wind Speed 20 mph    
Max Gust Speed 26 mph    
Visibility 10 miles    
Events Snow    
Averages and records for this station are not official NWS values.
T = Trace of Precipitation, MM = Missing Value Source: NWS Daily Summary

Daily Weather History Graph

Daily Weather History Graph

Search for Another Location

Airport:

Trip Planner

Search our weather history database for the weather conditions in past years. The results will help you decide how hot, cold, wet, or windy it might be!

Date:

Astronomy

Jan. 21, 2013 Rise Set
Actual Time 7:43 AM CST 5:26 PM CST
Civil Twilight 7:13 AM CST 5:56 PM CST
Nautical Twilight 6:39 AM CST 6:29 PM CST
Astronomical Twilight 6:06 AM CST 7:02 PM CST
Moon 1:06 PM CST (1/21) 3:12 AM CST (1/21)
Length of Visible Light 10h 43m
Length of Day
9h 43m
Waxing Gibbous, 75% of the Moon is Illuminated
Jan 21
Waxing Gibbous
Jan 26
Full
Feb 3
Last Quarter
Feb 10
New
Feb 17
First Quarter

Hourly Weather History & Observations

Time (CST) Temp. Windchill Dew Point Humidity Pressure Visibility Wind Dir Wind Speed Gust Speed Precip Events Conditions
12:15 AM 14.0 °F 3.9 °F 6.8 °F 73% 30.38 in 10.0 mi WNW 6.9 mph - N/A Snow Light Snow
12:35 AM 14.0 °F 2.0 °F 6.8 °F 73% 30.38 in 10.0 mi WNW 9.2 mph - N/A   Overcast
12:55 AM 15.8 °F 2.7 °F 6.8 °F 68% 30.38 in 10.0 mi NW 11.5 mph - N/A   Overcast
1:15 AM 14.0 °F -0.2 °F 5.0 °F 67% 30.37 in 10.0 mi NNW 12.7 mph - N/A   Overcast
1:35 AM 14.0 °F -0.8 °F 5.0 °F 67% 30.38 in 10.0 mi NW 13.8 mph - N/A   Overcast
1:55 AM 14.0 °F -2.0 °F 3.2 °F 62% 30.37 in 10.0 mi NNW 16.1 mph - N/A   Overcast
2:15 AM 14.0 °F -0.8 °F 3.2 °F 62% 30.38 in 10.0 mi NNW 13.8 mph 20.7 mph N/A   Overcast
2:35 AM 12.2 °F -3.7 °F 1.4 °F 62% 30.38 in 10.0 mi NNW 15.0 mph 21.9 mph N/A   Overcast
2:55 AM 12.2 °F -5.8 °F 1.4 °F 62% 30.39 in 10.0 mi NNW 19.6 mph 26.5 mph N/A   Overcast
3:15 AM 10.4 °F -6.0 °F -0.4 °F 62% 30.39 in 10.0 mi NNW 15.0 mph 20.7 mph N/A   Overcast
3:35 AM 10.4 °F -7.7 °F -2.2 °F 57% 30.38 in 10.0 mi NW 18.4 mph - N/A   Overcast
3:55 AM 8.6 °F -10.5 °F -5.8 °F 52% 30.38 in 10.0 mi NW 19.6 mph 25.3 mph N/A   Overcast
4:15 AM 8.6 °F -6.3 °F -5.8 °F 52% 30.38 in 10.0 mi NNW 11.5 mph 25.3 mph N/A   Overcast
4:35 AM 8.6 °F -8.3 °F -4.0 °F 57% 30.38 in 10.0 mi NNW 15.0 mph - N/A   Overcast
4:55 AM 6.8 °F -10.0 °F -5.8 °F 56% 30.39 in 10.0 mi NNW 13.8 mph 26.5 mph N/A   Overcast
5:15 AM 6.8 °F -11.3 °F -5.8 °F 56% 30.38 in 10.0 mi NNW 16.1 mph 21.9 mph N/A   Overcast
5:35 AM 6.8 °F -8.6 °F -5.8 °F 56% 30.38 in 10.0 mi NNW 11.5 mph 20.7 mph N/A   Overcast
5:55 AM 5.0 °F -14.2 °F -5.8 °F 61% 30.39 in 10.0 mi NNW 17.3 mph 23.0 mph N/A   Overcast
6:15 AM 5.0 °F -11.6 °F -7.6 °F 56% 30.39 in 10.0 mi NNW 12.7 mph 24.2 mph N/A   Overcast
6:35 AM 5.0 °F -13.6 °F -9.4 °F 52% 30.40 in 10.0 mi NNW 16.1 mph - N/A   Overcast
6:55 AM 3.2 °F -13.1 °F -7.6 °F 61% 30.41 in 10.0 mi NNW 11.5 mph 21.9 mph N/A   Overcast
7:15 AM - - - N/A% - - North - - N/A   Unknown
7:35 AM 3.2 °F -13.1 °F -9.4 °F 56% 30.41 in 10.0 mi NNW 11.5 mph 18.4 mph N/A   Unknown
7:55 AM 3.2 °F -11.3 °F -9.4 °F 56% 30.41 in 10.0 mi NNW 9.2 mph 16.1 mph N/A   Mostly Cloudy
8:15 AM 3.2 °F -10.3 °F -9.4 °F 56% 30.41 in 10.0 mi NNW 8.1 mph 15.0 mph N/A   Partly Cloudy
8:35 AM 3.2 °F -13.1 °F -7.6 °F 61% 30.41 in 10.0 mi NW 11.5 mph - N/A   Partly Cloudy
8:55 AM 3.2 °F -14.6 °F -9.4 °F 56% 30.42 in 10.0 mi NW 13.8 mph - N/A   Clear
9:15 AM 3.2 °F -10.3 °F -9.4 °F 56% 30.42 in 10.0 mi NW 8.1 mph 16.1 mph N/A   Clear
9:35 AM 5.0 °F -10.8 °F -9.4 °F 52% 30.42 in 10.0 mi NW 11.5 mph - N/A   Clear
9:55 AM 5.0 °F -10.0 °F -7.6 °F 56% 30.43 in 10.0 mi NNW 10.4 mph - N/A   Clear
10:15 AM 5.0 °F -10.8 °F -7.6 °F 56% 30.43 in 10.0 mi NNW 11.5 mph - N/A   Clear
10:35 AM 5.0 °F -11.6 °F -9.4 °F 52% 30.43 in 10.0 mi NW 12.7 mph - N/A   Clear
10:55 AM 6.8 °F -7.8 °F -7.6 °F 52% 30.44 in 10.0 mi NNW 10.4 mph - N/A   Partly Cloudy
11:15 AM 6.8 °F -8.6 °F -9.4 °F 48% 30.43 in 10.0 mi NNW 11.5 mph - N/A   Partly Cloudy
11:35 AM 6.8 °F -7.8 °F -7.6 °F 52% 30.42 in 10.0 mi NW 10.4 mph - N/A   Scattered Clouds
11:55 AM 6.8 °F -6.9 °F -9.4 °F 48% 30.41 in 10.0 mi NW 9.2 mph 15.0 mph N/A   Partly Cloudy
12:15 PM 6.8 °F -5.9 °F -7.6 °F 52% 30.41 in 10.0 mi WNW 8.1 mph - N/A   Partly Cloudy
12:35 PM 6.8 °F -7.8 °F -7.6 °F 52% 30.40 in 10.0 mi NW 10.4 mph - N/A   Clear
12:55 PM 8.6 °F -4.7 °F -7.6 °F 48% 30.39 in 10.0 mi NW 9.2 mph - N/A   Clear
1:15 PM 8.6 °F -3.7 °F -9.4 °F 44% 30.39 in 10.0 mi NW 8.1 mph 13.8 mph N/A   Clear
1:35 PM 8.6 °F -5.5 °F -7.6 °F 48% 30.38 in 10.0 mi NW 10.4 mph - N/A   Clear
1:55 PM 8.6 °F -3.7 °F -7.6 °F 48% 30.37 in 10.0 mi NW 8.1 mph - N/A   Clear
2:15 PM 10.4 °F -3.3 °F -7.6 °F 44% 30.37 in 10.0 mi NW 10.4 mph - N/A   Clear
2:35 PM 12.2 °F 1.7 °F -7.6 °F 41% 30.36 in 10.0 mi NW 6.9 mph 13.8 mph N/A   Clear
2:55 PM 12.2 °F -0.2 °F -7.6 °F 41% 30.37 in 10.0 mi WNW 9.2 mph - N/A   Clear
3:15 PM 12.2 °F 1.7 °F -7.6 °F 41% 30.36 in 10.0 mi Variable 6.9 mph - N/A   Clear
3:35 PM 12.2 °F 0.7 °F -7.6 °F 41% 30.35 in 10.0 mi NW 8.1 mph - N/A   Clear
3:55 PM 12.2 °F -0.2 °F -7.6 °F 41% 30.35 in 10.0 mi NNW 9.2 mph - N/A   Clear
4:15 PM 12.2 °F -1.0 °F -9.4 °F 38% 30.35 in 10.0 mi NNW 10.4 mph - N/A   Clear
4:35 PM 12.2 °F -0.2 °F -7.6 °F 41% 30.35 in 10.0 mi NW 9.2 mph - N/A   Clear
4:55 PM 12.2 °F -0.2 °F -7.6 °F 41% 30.34 in 10.0 mi NW 9.2 mph - N/A   Scattered Clouds
5:15 PM 12.2 °F - -7.6 °F 41% 30.34 in 10.0 mi North - - N/A   Scattered Clouds
5:35 PM 12.2 °F -0.2 °F -7.6 °F 41% 30.34 in 10.0 mi WNW 9.2 mph - N/A   Mostly Cloudy
5:55 PM 12.2 °F -0.2 °F -7.6 °F 41% 30.34 in 10.0 mi NW 9.2 mph - N/A   Overcast
6:15 PM 12.2 °F - -5.8 °F 45% 30.34 in 10.0 mi North - - N/A   Overcast
6:55 PM 10.4 °F -1.5 °F -4.0 °F 52% 30.35 in 10.0 mi North 8.1 mph - N/A   Overcast
7:15 PM 10.4 °F 0.8 °F -4.0 °F 52% 30.34 in 10.0 mi NNW 5.8 mph - N/A   Overcast
7:35 PM 10.4 °F 2.2 °F -4.0 °F 52% 30.35 in 10.0 mi North 4.6 mph - N/A   Overcast
7:55 PM 10.4 °F 2.2 °F -4.0 °F 52% 30.35 in 10.0 mi North 4.6 mph - N/A   Overcast
8:15 PM 10.4 °F -1.5 °F -4.0 °F 52% 30.35 in 10.0 mi North 8.1 mph - N/A   Overcast
8:35 PM 10.4 °F 0.8 °F -4.0 °F 52% 30.35 in 10.0 mi North 5.8 mph - N/A   Overcast
8:55 PM 10.4 °F 2.2 °F -4.0 °F 52% 30.35 in 10.0 mi North 4.6 mph - N/A   Overcast
9:15 PM 10.4 °F 0.8 °F -4.0 °F 52% 30.35 in 10.0 mi North 5.8 mph - N/A   Overcast
9:35 PM 10.4 °F 0.8 °F -2.2 °F 57% 30.35 in 10.0 mi North 5.8 mph - N/A   Overcast
9:55 PM 10.4 °F 0.8 °F -4.0 °F 52% 30.34 in 10.0 mi North 5.8 mph - N/A   Overcast
10:15 PM 10.4 °F 4.0 °F -4.0 °F 52% 30.34 in 10.0 mi North 3.5 mph - N/A   Overcast
10:35 PM 10.4 °F 2.2 °F -4.0 °F 52% 30.34 in 10.0 mi NNE 4.6 mph - N/A   Overcast
10:55 PM 10.4 °F 2.2 °F -4.0 °F 52% 30.34 in 10.0 mi NNW 4.6 mph - N/A   Overcast
11:15 PM 8.6 °F 2.0 °F -4.0 °F 57% 30.34 in 10.0 mi NW 3.5 mph - N/A   Overcast
11:35 PM 10.4 °F - -2.2 °F 57% 30.34 in 10.0 mi Calm Calm - N/A   Overcast
11:55 PM 10.4 °F - -4.0 °F 52% 30.33 in 10.0 mi Calm Calm - N/A   Overcast